Time,TemperatureF,DewpointF,PressureIn,WindDirection,WindDirectionDegrees,WindSpeedMPH,WindSpeedGustMPH,Humidity,HourlyPrecipIn,Conditions,Clouds,dailyrainin,SoftwareType,DateUTC
2013-03-06 00:02:00,37.0,34.0,30.06,NNW,340,2.0,4.0,89,0.00,,,0.00,,2013-03-06 05:02:00,
2013-03-06 00:12:00,37.0,34.0,30.06,NNW,340,2.0,4.0,89,0.00,,,0.00,,2013-03-06 05:12:00,
2013-03-06 00:22:00,38.0,35.0,30.06,NE,38,1.0,4.0,88,0.00,,,0.00,,2013-03-06 05:22:00,
2013-03-06 00:32:00,38.0,34.0,30.05,North,11,2.0,6.0,87,0.00,,,0.00,,2013-03-06 05:32:00,
2013-03-06 00:42:00,38.0,34.0,30.05,North,11,2.0,6.0,87,0.00,,,0.00,,2013-03-06 05:42:00,
2013-03-06 00:52:00,38.0,34.0,30.06,NE,34,3.0,7.0,87,0.00,,,0.00,,2013-03-06 05:52:00,
2013-03-06 01:02:00,38.0,35.0,30.06,North,8,3.0,9.0,88,0.00,,,0.00,,2013-03-06 06:02:00,
2013-03-06 01:11:00,38.0,35.0,30.06,North,8,3.0,9.0,88,0.00,,,0.00,,2013-03-06 06:11:00,
2013-03-06 01:22:00,37.0,34.0,30.06,East,86,2.0,8.0,90,0.00,,,0.00,,2013-03-06 06:22:00,
2013-03-06 01:32:00,37.0,35.0,30.05,North,349,3.0,7.0,92,0.00,,,0.00,,2013-03-06 06:32:00,
2013-03-06 01:42:00,37.0,35.0,30.05,North,349,3.0,7.0,92,0.00,,,0.00,,2013-03-06 06:42:00,
2013-03-06 01:52:00,37.0,35.0,30.05,NNW,339,4.0,10.0,92,0.00,,,0.00,,2013-03-06 06:52:00,
2013-03-06 02:01:00,38.0,36.0,30.06,NNW,340,3.0,10.0,92,0.00,,,0.00,,2013-03-06 07:01:00,
2013-03-06 02:11:00,38.0,36.0,30.06,NNW,340,3.0,10.0,92,0.00,,,0.00,,2013-03-06 07:11:00,
2013-03-06 02:22:00,38.0,36.0,30.04,NNE,19,5.0,10.0,92,0.00,,,0.00,,2013-03-06 07:22:00,
2013-03-06 02:32:00,38.0,36.0,30.04,North,360,5.0,14.0,91,0.01,,,0.01,,2013-03-06 07:32:00,
2013-03-06 02:42:00,38.0,36.0,30.04,North,360,5.0,14.0,91,0.01,,,0.01,,2013-03-06 07:42:00,
2013-03-06 02:52:00,38.0,36.0,30.05,ENE,64,4.0,10.0,91,0.01,,,0.01,,2013-03-06 07:52:00,
2013-03-06 03:01:00,38.0,36.0,30.05,NNE,12,7.0,14.0,91,0.01,,,0.01,,2013-03-06 08:01:00,
2013-03-06 03:11:00,38.0,36.0,30.05,NNE,12,7.0,14.0,91,0.01,,,0.01,,2013-03-06 08:11:00,
2013-03-06 03:21:00,37.0,35.0,30.05,North,355,6.0,13.0,92,0.01,,,0.01,,2013-03-06 08:21:00,
2013-03-06 03:32:00,37.0,35.0,30.05,North,9,5.0,10.0,93,0.00,,,0.01,,2013-03-06 08:32:00,
2013-03-06 03:42:00,37.0,35.0,30.05,North,9,5.0,10.0,93,0.00,,,0.01,,2013-03-06 08:42:00,
2013-03-06 03:52:00,37.0,35.0,30.05,NNW,343,7.0,12.0,94,0.00,,,0.01,,2013-03-06 08:52:00,
2013-03-06 04:01:00,37.0,35.0,30.06,ENE,64,4.0,10.0,94,0.01,,,0.02,,2013-03-06 09:01:00,
2013-03-06 04:12:00,37.0,35.0,30.06,ENE,64,4.0,10.0,94,0.01,,,0.02,,2013-03-06 09:12:00,
2013-03-06 04:21:00,37.0,35.0,30.06,NNE,15,2.0,7.0,94,0.03,,,0.04,,2013-03-06 09:21:00,
2013-03-06 04:32:00,37.0,35.0,30.07,WNW,300,3.0,8.0,94,0.03,,,0.04,,2013-03-06 09:32:00,
2013-03-06 04:42:00,37.0,35.0,30.07,WNW,300,3.0,8.0,94,0.03,,,0.04,,2013-03-06 09:42:00,
2013-03-06 04:51:00,37.0,35.0,30.07,East,93,1.0,5.0,93,0.04,,,0.05,,2013-03-06 09:51:00,
2013-03-06 05:01:00,37.0,35.0,30.08,SSE,148,2.0,7.0,93,0.04,,,0.06,,2013-03-06 10:01:00,
2013-03-06 05:11:00,37.0,35.0,30.08,SSE,148,2.0,7.0,93,0.04,,,0.06,,2013-03-06 10:11:00,
2013-03-06 05:22:00,38.0,36.0,30.08,ENE,61,3.0,8.0,92,0.02,,,0.06,,2013-03-06 10:22:00,
2013-03-06 05:32:00,38.0,36.0,30.08,NE,37,2.0,8.0,91,0.02,,,0.06,,2013-03-06 10:32:00,
2013-03-06 05:42:00,38.0,36.0,30.08,NE,37,2.0,8.0,91,0.02,,,0.06,,2013-03-06 10:42:00,
2013-03-06 05:52:00,37.0,35.0,30.08,ESE,103,3.0,8.0,92,0.01,,,0.07,,2013-03-06 10:52:00,
2013-03-06 06:02:00,37.0,35.0,30.08,SE,137,2.0,8.0,92,0.01,,,0.07,,2013-03-06 11:02:00,
2013-03-06 06:11:00,37.0,35.0,30.08,SE,137,2.0,8.0,92,0.01,,,0.07,,2013-03-06 11:11:00,
2013-03-06 06:22:00,37.0,35.0,30.08,NE,41,5.0,9.0,92,0.01,,,0.07,,2013-03-06 11:22:00,
2013-03-06 06:32:00,38.0,36.0,30.08,NNE,32,3.0,12.0,91,0.02,,,0.08,,2013-03-06 11:32:00,
2013-03-06 06:42:00,38.0,36.0,30.08,NNE,32,3.0,12.0,91,0.02,,,0.08,,2013-03-06 11:42:00,
2013-03-06 06:52:00,38.0,35.0,30.09,NE,47,4.0,7.0,90,0.01,,,0.08,,2013-03-06 11:52:00,
2013-03-06 07:02:00,38.0,35.0,30.09,East,88,5.0,11.0,88,0.01,,,0.08,,2013-03-06 12:02:00,
2013-03-06 07:12:00,38.0,35.0,30.09,East,88,5.0,11.0,88,0.01,,,0.08,,2013-03-06 12:12:00,
2013-03-06 07:22:00,38.0,34.0,30.10,ENE,63,5.0,16.0,86,0.01,,,0.08,,2013-03-06 12:22:00,
2013-03-06 07:33:00,39.0,34.0,30.10,NE,49,3.0,12.0,83,0.00,,,0.08,,2013-03-06 12:33:00,
2013-03-06 07:42:00,39.0,34.0,30.10,NE,49,3.0,12.0,83,0.00,,,0.08,,2013-03-06 12:42:00,
2013-03-06 07:52:00,39.0,34.0,30.11,East,90,4.0,9.0,82,0.00,,,0.08,,2013-03-06 12:52:00,
2013-03-06 08:02:00,39.0,34.0,30.12,WNW,288,2.0,11.0,83,0.00,,,0.08,,2013-03-06 13:02:00,
2013-03-06 08:12:00,39.0,34.0,30.12,WNW,288,2.0,11.0,83,0.00,,,0.08,,2013-03-06 13:12:00,
2013-03-06 08:22:00,38.0,33.0,30.13,East,83,5.0,10.0,83,0.00,,,0.08,,2013-03-06 13:22:00,
2013-03-06 08:32:00,38.0,32.0,30.13,East,92,3.0,11.0,80,0.00,,,0.08,,2013-03-06 13:32:00,
2013-03-06 08:42:00,38.0,32.0,30.13,East,92,3.0,11.0,80,0.00,,,0.08,,2013-03-06 13:42:00,
2013-03-06 08:52:00,38.0,32.0,30.12,North,4,3.0,7.0,79,0.00,,,0.08,,2013-03-06 13:52:00,
2013-03-06 09:02:00,38.0,33.0,30.11,ESE,106,3.0,10.0,82,0.00,,,0.08,,2013-03-06 14:02:00,
2013-03-06 09:11:00,38.0,33.0,30.11,ESE,106,3.0,10.0,82,0.00,,,0.08,,2013-03-06 14:11:00,
2013-03-06 09:22:00,38.0,34.0,30.11,ESE,113,4.0,11.0,84,0.00,,,0.08,,2013-03-06 14:22:00,
2013-03-06 09:32:00,38.0,33.0,30.11,ESE,113,2.0,9.0,82,0.00,,,0.08,,2013-03-06 14:32:00,
2013-03-06 09:42:00,38.0,33.0,30.11,ESE,113,2.0,9.0,82,0.00,,,0.08,,2013-03-06 14:42:00,
2013-03-06 09:53:00,38.0,33.0,30.11,NW,308,4.0,11.0,82,0.00,,,0.08,,2013-03-06 14:53:00,
2013-03-06 10:02:00,39.0,34.0,30.12,SE,143,4.0,10.0,81,0.00,,,0.08,,2013-03-06 15:02:00,
2013-03-06 10:12:00,39.0,34.0,30.12,SE,143,4.0,10.0,81,0.00,,,0.08,,2013-03-06 15:12:00,
2013-03-06 10:22:00,39.0,35.0,30.13,ESE,103,4.0,10.0,84,0.00,,,0.08,,2013-03-06 15:22:00,
2013-03-06 10:32:00,38.0,34.0,30.12,SE,124,2.0,8.0,84,0.00,,,0.08,,2013-03-06 15:32:00,
2013-03-06 10:42:00,38.0,34.0,30.12,SE,124,2.0,8.0,84,0.00,,,0.08,,2013-03-06 15:42:00,
2013-03-06 10:52:00,39.0,32.0,30.12,ENE,75,5.0,10.0,77,0.00,,,0.08,,2013-03-06 15:52:00,
2013-03-06 11:02:00,39.0,32.0,30.12,ENE,64,3.0,12.0,75,0.00,,,0.08,,2013-03-06 16:02:00,
2013-03-06 11:12:00,39.0,32.0,30.12,ENE,64,3.0,12.0,75,0.00,,,0.08,,2013-03-06 16:12:00,
2013-03-06 11:21:00,39.0,32.0,30.12,NE,40,3.0,9.0,77,0.00,,,0.08,,2013-03-06 16:21:00,
2013-03-06 11:32:00,39.0,33.0,30.11,ESE,113,2.0,10.0,79,0.00,,,0.08,,2013-03-06 16:32:00,
2013-03-06 11:42:00,39.0,33.0,30.11,ESE,113,2.0,10.0,79,0.00,,,0.08,,2013-03-06 16:42:00,
2013-03-06 11:52:00,38.0,33.0,30.11,NW,325,5.0,11.0,82,0.00,,,0.08,,2013-03-06 16:52:00,
2013-03-06 12:01:00,39.0,34.0,30.10,East,94,3.0,10.0,82,0.00,,,0.08,,2013-03-06 17:01:00,
2013-03-06 12:11:00,39.0,34.0,30.10,East,94,3.0,10.0,82,0.00,,,0.08,,2013-03-06 17:11:00,
2013-03-06 12:22:00,40.0,33.0,30.11,ESE,121,6.0,15.0,77,0.00,,,0.08,,2013-03-06 17:22:00,
2013-03-06 12:32:00,39.0,35.0,30.10,ESE,109,3.0,10.0,84,0.00,,,0.08,,2013-03-06 17:32:00,
2013-03-06 12:42:00,39.0,35.0,30.10,ESE,109,3.0,10.0,84,0.00,,,0.08,,2013-03-06 17:42:00,
2013-03-06 12:53:00,39.0,33.0,30.10,East,79,5.0,8.0,78,0.00,,,0.08,,2013-03-06 17:53:00,
2013-03-06 13:02:00,39.0,34.0,30.10,NNE,29,4.0,10.0,82,0.00,,,0.08,,2013-03-06 18:02:00,
2013-03-06 13:29:00,38.0,34.0,30.10,ENE,77,2.0,13.0,84,0.00,,,0.08,,2013-03-06 18:29:00,
2013-03-06 13:42:00,39.0,34.0,30.10,ENE,60,5.0,11.0,81,0.00,,,0.08,,2013-03-06 18:42:00,
2013-03-06 13:53:00,38.0,34.0,30.10,NNW,328,3.0,11.0,85,0.00,,,0.08,,2013-03-06 18:53:00,
2013-03-06 14:02:00,38.0,33.0,30.10,ENE,62,5.0,11.0,82,0.00,,,0.08,,2013-03-06 19:02:00,
2013-03-06 14:11:00,38.0,33.0,30.10,ENE,62,5.0,11.0,82,0.00,,,0.08,,2013-03-06 19:11:00,
2013-03-06 14:22:00,37.0,33.0,30.10,East,85,2.0,7.0,86,0.00,,,0.08,,2013-03-06 19:22:00,
2013-03-06 14:32:00,37.0,33.0,30.10,WNW,296,4.0,10.0,85,0.01,,,0.09,,2013-03-06 19:32:00,
2013-03-06 14:43:00,37.0,33.0,30.10,WNW,296,4.0,10.0,85,0.01,,,0.09,,2013-03-06 19:43:00,
2013-03-06 14:52:00,37.0,33.0,30.10,WNW,294,5.0,12.0,86,0.01,,,0.09,,2013-03-06 19:52:00,
2013-03-06 15:02:00,37.0,33.0,30.10,ENE,67,6.0,10.0,86,0.01,,,0.09,,2013-03-06 20:02:00,
2013-03-06 15:12:00,37.0,33.0,30.10,ENE,67,6.0,10.0,86,0.01,,,0.09,,2013-03-06 20:12:00,
2013-03-06 15:22:00,37.0,32.0,30.10,South,179,4.0,15.0,83,0.02,,,0.10,,2013-03-06 20:22:00,
2013-03-06 15:32:00,37.0,32.0,30.10,NNE,25,4.0,9.0,83,0.02,,,0.10,,2013-03-06 20:32:00,
2013-03-06 15:42:00,37.0,32.0,30.10,NNE,25,4.0,9.0,83,0.02,,,0.10,,2013-03-06 20:42:00,
2013-03-06 15:53:00,37.0,31.0,30.10,East,98,5.0,10.0,80,0.01,,,0.10,,2013-03-06 20:53:00,
2013-03-06 16:02:00,37.0,31.0,30.10,North,353,4.0,14.0,80,0.01,,,0.10,,2013-03-06 21:02:00,
2013-03-06 16:12:00,37.0,31.0,30.10,North,353,4.0,14.0,80,0.01,,,0.10,,2013-03-06 21:12:00,
2013-03-06 16:22:00,37.0,32.0,30.10,WNW,298,4.0,9.0,81,0.00,,,0.10,,2013-03-06 21:22:00,
2013-03-06 16:32:00,38.0,32.0,30.10,ENE,60,3.0,15.0,79,0.00,,,0.10,,2013-03-06 21:32:00,
2013-03-06 16:42:00,38.0,32.0,30.10,ENE,60,3.0,15.0,79,0.00,,,0.10,,2013-03-06 21:42:00,
2013-03-06 16:52:00,38.0,32.0,30.10,NNE,16,4.0,12.0,78,0.00,,,0.10,,2013-03-06 21:52:00,
2013-03-06 17:02:00,37.0,31.0,30.10,NNW,328,5.0,10.0,79,0.00,,,0.10,,2013-03-06 22:02:00,
2013-03-06 17:11:00,37.0,31.0,30.10,NNW,328,5.0,10.0,79,0.00,,,0.10,,2013-03-06 22:11:00,
2013-03-06 17:22:00,37.0,31.0,30.10,NE,34,3.0,11.0,80,0.00,,,0.10,,2013-03-06 22:22:00,
2013-03-06 17:32:00,37.0,32.0,30.11,East,94,7.0,18.0,81,0.00,,,0.10,,2013-03-06 22:32:00,
2013-03-06 17:42:00,37.0,32.0,30.11,East,94,7.0,18.0,81,0.00,,,0.10,,2013-03-06 22:42:00,
2013-03-06 17:52:00,36.0,32.0,30.13,East,82,2.0,16.0,86,0.00,,,0.10,,2013-03-06 22:52:00,
2013-03-06 18:01:00,36.0,33.0,30.12,NNE,25,4.0,11.0,87,0.00,,,0.10,,2013-03-06 23:01:00,
2013-03-06 18:11:00,36.0,33.0,30.12,NNE,25,4.0,11.0,87,0.00,,,0.10,,2013-03-06 23:11:00,
2013-03-06 18:22:00,35.0,32.0,30.13,NNW,340,5.0,13.0,89,0.00,,,0.10,,2013-03-06 23:22:00,
2013-03-06 18:32:00,35.0,33.0,30.13,NE,38,4.0,11.0,91,0.00,,,0.10,,2013-03-06 23:32:00,
2013-03-06 18:42:00,35.0,33.0,30.13,NE,38,4.0,11.0,91,0.00,,,0.10,,2013-03-06 23:42:00,
2013-03-06 18:52:00,35.0,32.0,30.12,North,353,6.0,12.0,90,0.01,,,0.11,,2013-03-06 23:52:00,
2013-03-06 19:02:00,35.0,33.0,30.12,ENE,74,4.0,12.0,91,0.01,,,0.11,,2013-03-07 00:02:00,
2013-03-06 19:11:00,35.0,33.0,30.12,ENE,74,4.0,12.0,91,0.01,,,0.11,,2013-03-07 00:11:00,
2013-03-06 19:22:00,35.0,33.0,30.11,East,84,6.0,11.0,92,0.01,,,0.11,,2013-03-07 00:22:00,
2013-03-06 19:32:00,35.0,33.0,30.10,NNE,13,5.0,11.0,91,0.02,,,0.12,,2013-03-07 00:32:00,
2013-03-06 19:42:00,35.0,33.0,30.10,NNE,13,5.0,11.0,91,0.02,,,0.12,,2013-03-07 00:42:00,
2013-03-06 19:52:00,36.0,33.0,30.10,ESE,103,7.0,14.0,90,0.01,,,0.12,,2013-03-07 00:52:00,
2013-03-06 20:01:00,36.0,33.0,30.11,NNE,15,3.0,8.0,87,0.01,,,0.12,,2013-03-07 01:01:00,
2013-03-06 20:11:00,36.0,33.0,30.11,NNE,15,3.0,8.0,87,0.01,,,0.12,,2013-03-07 01:11:00,
2013-03-06 20:21:00,36.0,32.0,30.11,East,79,4.0,12.0,86,0.00,,,0.12,,2013-03-07 01:21:00,
2013-03-06 20:32:00,36.0,33.0,30.11,NNE,32,6.0,11.0,87,0.00,,,0.12,,2013-03-07 01:32:00,
2013-03-06 20:42:00,36.0,33.0,30.11,NNE,32,6.0,11.0,87,0.00,,,0.12,,2013-03-07 01:42:00,
2013-03-06 20:52:00,36.0,32.0,30.11,NNE,29,6.0,15.0,86,0.00,,,0.12,,2013-03-07 01:52:00,
2013-03-06 21:01:00,36.0,33.0,30.11,NW,304,3.0,13.0,87,0.00,,,0.12,,2013-03-07 02:01:00,
2013-03-06 21:11:00,36.0,33.0,30.11,NW,304,3.0,13.0,87,0.00,,,0.12,,2013-03-07 02:11:00,
2013-03-06 21:21:00,34.0,31.0,30.10,NNW,341,5.0,14.0,90,0.00,,,0.12,,2013-03-07 02:21:00,
2013-03-06 21:32:00,35.0,32.0,30.10,NNE,19,4.0,9.0,89,0.00,,,0.12,,2013-03-07 02:32:00,
2013-03-06 21:42:00,35.0,32.0,30.10,NNE,19,4.0,9.0,89,0.00,,,0.12,,2013-03-07 02:42:00,
2013-03-06 21:52:00,35.0,32.0,30.10,NNE,19,4.0,9.0,89,0.00,,,0.12,,2013-03-07 02:52:00,
2013-03-06 22:02:00,35.0,32.0,30.09,NNE,23,5.0,12.0,87,0.00,,,0.12,,2013-03-07 03:02:00,
2013-03-06 22:11:00,35.0,32.0,30.09,NNE,23,5.0,12.0,87,0.00,,,0.12,,2013-03-07 03:11:00,
2013-03-06 22:22:00,35.0,31.0,30.09,NNE,33,6.0,12.0,85,0.00,,,0.12,,2013-03-07 03:22:00,
2013-03-06 22:32:00,36.0,31.0,30.09,NNE,25,7.0,13.0,81,0.00,,,0.12,,2013-03-07 03:32:00,
2013-03-06 22:42:00,36.0,31.0,30.09,NNE,25,7.0,13.0,81,0.00,,,0.12,,2013-03-07 03:42:00,
2013-03-06 22:52:00,36.0,31.0,30.09,ENE,75,5.0,10.0,81,0.00,,,0.12,,2013-03-07 03:52:00,
2013-03-06 23:02:00,36.0,31.0,30.08,West,270,6.0,14.0,81,0.00,,,0.12,,2013-03-07 04:02:00,
2013-03-06 23:12:00,36.0,31.0,30.08,West,270,6.0,14.0,81,0.00,,,0.12,,2013-03-07 04:12:00,
2013-03-06 23:22:00,36.0,29.0,30.08,NE,42,7.0,14.0,77,0.00,,,0.12,,2013-03-07 04:22:00,
2013-03-06 23:32:00,36.0,30.0,30.07,NNW,332,4.0,15.0,80,0.01,,,0.13,,2013-03-07 04:32:00,
2013-03-06 23:42:00,36.0,30.0,30.07,NNW,332,4.0,15.0,80,0.01,,,0.13,,2013-03-07 04:42:00,
2013-03-06 23:52:00,36.0,30.0,30.07,NE,53,9.0,25.0,78,0.01,,,0.13,,2013-03-07 04:52:00,